Printer-friendly version

IAU Minor Planet Center

Minor Planet Center

MPEC 2009-F39 : 2009 FV4

The following Minor Planet Electronic Circular may be linked-to from your own Web pages, but must not otherwise be redistributed electronically.


Read MPEC 2009-F38 Read MPEC 2009-F40


M.P.E.C. 2009-F39                                Issued 2009 Mar. 20, 15:11 UT

     The Minor Planet Electronic Circulars contain information on unusual
         minor planets and routine data on comets.  They are published
   on behalf of Commission 20 of the International Astronomical Union by the
          Minor Planet Center, Smithsonian Astrophysical Observatory,
                          Cambridge, MA 02138, U.S.A.

             Prepared using the Tamkin Foundation Computer Network

                              MPC@CFA.HARVARD.EDU
          URL http://www.cfa.harvard.edu/iau/mpc.html  ISSN 1523-6714

                                   2009 FV4

Observations:
     K09F04V* C2009 03 19.28213 11 19 12.54 +04 42 16.2          20.5 V EF039G96
     K09F04V  C2009 03 19.29088 11 19 11.60 +04 42 34.9          20.7 V EF039G96
     K09F04V  C2009 03 19.30855 11 19 09.66 +04 43 12.7          21.0 V EF039G96
     K09F04V  C2009 03 19.40050 11 18 59.76 +04 46 29.8          20.6 V EF039G96
     K09F04V  C2009 03 19.40130 11 18 59.68 +04 46 31.6          20.5 V EF039G96
     K09F04V  C2009 03 19.40211 11 18 59.61 +04 46 33.0          20.4 V EF039G96
     K09F04V  C2009 03 19.40289 11 18 59.54 +04 46 34.7          20.7 V EF039G96
     K09F04V  C2009 03 19.94180 11 18 03.19 +05 05 51.2          20.8 V EF039B21
     K09F04V  C2009 03 19.94504 11 18 02.82 +05 05 57.6          21.0 V EF039B21
     K09F04V  C2009 03 19.94828 11 18 02.48 +05 06 04.8          20.3 V EF039B21
     K09F04V  C2009 03 19.95098 11 18 02.17 +05 06 10.2          20.3 V EF039B21
     K09F04V  C2009 03 20.21284 11 17 34.83 +05 15 36.2          20.6 V EF039G96
     K09F04V  C2009 03 20.23870111 17 31.86 +05 16 31.1          20.1 V EF039H55
     K09F04V  C2009 03 20.24535311 17 31.13 +05 16 45.4          20.1 V EF039H55

Observer details:
B21 Gaisberg Observatory, Schaerding.  Observer R. Gierlinger.  0.7-m f/3.1
    Newtonian reflector + CCD.
G96 Mt. Lemmon Survey.  Observer A. R. Gibbs.  Measurers E. C. Beshore,
    A. Boattini, G. J. Garradd, A. R. Gibbs, A. D. Grauer, R. E. Hill,
    R. A. Kowalski, S. M. Larson, R. H. McNaught.  1.5-m reflector + CCD.
H55 Astronomical Research Observatory, Charleston.  Observer R. Holmes.
    Measurer S. Foglia.

Orbital elements:
2009 FV4                                                 Earth MOID = 0.1684 AU
Epoch 2009 June 18.0 TT = JDT 2455000.5                 MPC
M 328.23670              (2000.0)            P               Q
n   0.40554823     Peri.  135.47527     +0.65509426     +0.75084570
a   1.8076224      Node   173.49089     -0.70948092     +0.57302680
e   0.5922728      Incl.   47.93383     +0.25978518     -0.32843724
P   2.43           H   18.5           G   0.15           U   9
Residuals in seconds of arc
090319 G96  0.1+  0.1+    090319 G96  0.1+  0.2-    090319 B21  0.2-  0.3-
090319 G96  0.2+  0.0     090319 G96  0.3+  0.2-    090320 G96  0.1-  0.0
090319 G96  0.3-  0.0     090319 B21  0.3+  0.4+    090320 H55  0.1+  0.0
090319 G96  0.2-  0.1+    090319 B21  0.1-  0.1-    090320 H55  0.1-  0.0
090319 G96  0.2-  0.1+    090319 B21  0.1+  0.1+

Ephemeris:
2009 FV4                 a,e,i = 1.81, 0.59, 48                  q = 0.7370
Date    TT    R. A. (2000) Decl.     Delta      r     Elong.  Phase     V
2009 03 20    11 17.95   +05 08.0    1.035    2.021   168.9     5.4    20.5
2009 03 30    11 00.41   +11 09.4    1.013    1.953   152.4    13.7    20.8
2009 04 09    10 44.39   +16 49.6    1.026    1.882   136.4    21.5    21.0
2009 04 19    10 31.71   +21 40.9    1.065    1.808   121.8    28.2    21.2
2009 04 29    10 23.45   +25 34.3    1.119    1.731   108.9    33.4    21.3
2009 05 09    10 19.93   +28 34.4    1.180    1.650    97.6    37.3    21.5
2009 05 19    10 20.90   +30 51.7    1.238    1.567    87.7    40.2    21.5
2009 05 29    10 25.97   +32 36.2    1.288    1.480    79.1    42.3    21.5
2009 06 08    10 34.66   +33 56.5    1.324    1.391    71.6    43.8    21.5
2009 06 18    10 46.54   +34 58.9    1.342    1.299    65.1    45.2    21.4

Sonia Keys                   (C) Copyright 2009 MPC           M.P.E.C. 2009-F39

Read MPEC 2009-F38 Read MPEC 2009-F40


Our Web policy. Index to the CBAT/MPC/ICQ pages.


Valid HTML 4.01!